Date,TemperatureHighF,TemperatureAvgF,TemperatureLowF,DewpointHighF,DewpointAvgF,DewpointLowF,HumidityHigh,HumidityAvg,HumidityLow,PressureMaxIn,PressureMinIn,WindSpeedMaxMPH,WindSpeedAvgMPH,GustSpeedMaxMPH,PrecipitationSumIn
2013-3-1,71,64,61,62,58,52,90,79,65,30.12,30.02,16,9,27,0.09
2013-3-2,74,66,61,60,56,50,91,73,50,30.12,29.96,17,10,32,0.05
2013-3-3,73,65,60,59,56,52,90,74,57,30.12,30.01,17,10,28,0.01
2013-3-4,75,66,61,60,57,52,85,74,56,30.12,30.00,17,9,29,0.00
2013-3-5,77,66,60,63,57,52,87,74,56,30.09,29.96,14,8,24,0.00
2013-3-6,76,66,59,63,59,53,89,78,61,30.07,29.97,12,5,20,0.01
2013-3-7,76,65,57,65,59,53,88,82,65,30.03,29.91,7,2,13,0.02
2013-3-8,76,65,53,63,57,50,92,76,54,29.98,29.83,9,3,16,0.01
2013-3-9,80,67,57,64,58,53,95,76,45,29.91,29.79,18,7,27,0.70
2013-3-10,76,67,62,66,62,58,96,84,63,29.96,29.82,20,8,31,0.83
2013-3-11,71,65,60,66,62,58,96,92,80,30.01,29.90,7,1,13,0.02
2013-3-12,74,65,60,66,62,59,96,89,74,30.04,29.91,7,1,12,0.01
2013-3-13,75,65,58,64,60,55,95,83,66,30.03,29.93,12,4,18,0.01
2013-3-14,76,66,58,66,60,55,91,82,60,30.02,29.90,13,1,17,0.00
2013-3-15,75,67,63,64,61,54,95,80,54,29.93,29.81,16,7,25,0.02
2013-3-16,68,63,60,61,58,56,97,86,71,29.97,29.84,9,3,14,0.09
2013-3-17,72,63,57,60,56,53,93,79,52,29.99,29.88,8,2,12,0.00
2013-3-18,75,63,53,62,56,50,92,78,60,29.98,29.87,8,3,14,0.00
2013-3-19,78,65,53,65,56,48,88,74,46,29.98,29.88,15,3,30,0.00
2013-3-20,78,66,56,66,58,52,90,78,54,30.02,29.91,12,2,16,0.00
2013-3-21,82,70,61,66,62,57,90,74,53,30.01,29.89,10,3,16,0.00
2013-3-22,76,68,63,66,63,56,93,83,70,29.98,29.86,12,2,16,0.00
2013-3-23,72,66,63,67,63,57,97,90,81,29.98,29.87,7,3,15,0.90
2013-3-24,74,66,60,66,62,58,97,89,75,29.97,29.87,7,2,18,0.04
2013-3-25,78,68,58,68,62,55,92,83,67,29.97,29.86,8,2,15,0.00
2013-3-26,80,68,57,69,62,56,95,81,64,29.99,29.88,9,1,14,0.00
2013-3-27,80,67,58,67,60,52,94,79,57,29.95,29.86,13,4,29,0.00
2013-3-28,75,67,59,66,60,53,89,78,66,29.98,29.87,16,7,24,0.00
2013-3-29,69,65,61,66,61,56,95,89,78,29.99,29.91,12,6,23,0.87
2013-3-30,75,65,58,66,61,56,97,89,72,30.01,29.91,6,1,12,0.04
2013-3-31,71,63,58,60,56,54,96,79,57,30.00,29.91,8,2,17,0.13